www.pogodaiklimat.ru

Погода и климат >> Архив погоды >> Россия >> Челябинская область >> Троицк


АРХИВ ПОГОДЫ в Троицке

Время (UTC), дата Ветер
(напр.,м/с)
 
Видим.   Явления Облачность Т
(С)
Тd
(С)
f
(%)
Тe
(С)
Тes
(С)
Комфортность P
(гПа)
Po
(гПа)
Тmin
(С)
Tmax
(С)
R
(мм)
R24
(мм)
S
(см)
09 12.08 В 4 10 км {ливн. осадки} 10/8 600 м
[Cb cap Ac cuf Ci ing]
+24.4 +11.0 43 +26 +27 жарко 996.6 975.1
12 12.08 СЗ 1 10 км {ливн. осадки} 10/3 600 м
[Cb cap Ac cuf Ci sp]
+26.9 +8.2 31 +27 +29 жарко 995.7 974.4
15 12.08 ЮЗ 1 10 км 10/5 600 м
[Cb cap Ac cuf Ci fib]
+25.1 +11.1 41 +26 +26 жарко 995.1 973.6 +28.2 0.7
18 12.08 СЗ 2 10 км в посл. час гроза 4/4 600 м
[Cb cap]
+19.7 +7.8 46 +21 +21 комфорт 994.9 973.0
21 12.08 штиль 0 10 км 4/0
[Ci sp]
+14.5 +9.4 71 +14 +14 995.4 973.1
00 13.08 З 1 10 км 9/9 600 м
[Cb cap]
+13.6 +10.9 84 +14 +14 995.5 973.2
03 13.08 СЗ 2 10 км {ливн. осадки} 8/6 600 м
[Cb cap Ac cuf]
+15.7 +12.7 82 +16 +16 995.9 973.7 +12.6 0.6
06 13.08 В 2 10 км {ливн. осадки} 8/5 600 м
[Cb cap Ac cuf Ci ing]
+23.0 +12.5 52 +26 +30 жарко 995.6 974.0
09 13.08 СВ 4
{10}
4000 м гроза, ливневой дождь 10/10 600 м
[Cb cap]
+20.9 +14.8 68 +24 +24 комфорт 997.3 975.5
12 13.08 С 3 10 км {гроза, ливн. осадки} 6/3 600 м
[Cb cap Cc]
+20.3 +16.3 78 +24 +26 комфорт 998.1 976.2
15 13.08 С 2 10 км 6/3 600 м
[Cb cap Ci ing]
+19.9 +14.5 71 +23 +23 комфорт 998.8 976.9 +24.2 3
18 13.08 З 1 4000 м гроза, ливневой дождь 10/10 600 м
[Cb cap]
+16.6 +14.7 89 +17 +17 1000.1 977.9
21 13.08 ЮВ 2 10 км {гроза, ливн. осадки} 8/8 600 м
[Cb cap]
+16.2 +14.2 88 +16 +16 1001.1 978.8
00 14.08 В 1 500 м туман {гроза} ?/? +14.7 +13.6 93 +15 +15 1002.9 980.5
03 14.08 СВ 1 200 м туман ?/? +14.7 +13.6 93 +15 +15 1005.4 983.0 +14.2 3
06 14.08 С 1 2000 м в посл. час туман 10/10 300 м
[St]
+15.9 +14.5 91 +17 +17 1007.4 985.0
09 14.08 штиль 0 4000 м дымка 10/10 300 м
[Sc]
+18.2 +14.6 80 +18 +18 1007.8 985.5
12 14.08 С 3 10 км 10/10 600 м
[Sc]
+18.6 +14.5 77 +20 +20 1008.6 986.4
15 14.08 З 1 10 км 9/8 600 м
[Sc Ci sp]
+18.3 +15.0 81 +20 +20 1009.7 987.4 +18.8
18 14.08 З 1 4000 м дымка 8/3 600 м
[Cb cap Ci fib]
+14.9 +13.3 90 +15 +15 1011.0 988.4
21 14.08 СЗ 2 4000 м дымка 6/1 600 м
[Sc Ci sp]
+14.2 +13.1 93 +14 +14 1010.6 988.0
00 15.08 СЗ 2 500 м туман ?/? +12.6 +11.6 94 +12 +12 1011.8 989.1
03 15.08 С 2 4000 м дымка {туман} ясно +16.0 +13.9 87 +16 +19 1013.0 990.5 +12.5
06 15.08 С 4 10 км {туман} 1/1 600 м
[Cu med, cong]
+21.4 +11.3 53 +23 +30 комфорт 1013.5 991.4
09 15.08 С 5 10 км 4/4 600 м
[Cu med, cong]
+23.3 +8.7 39 +25 +28 комфорт 1013.4 991.4
12 15.08 С 4
{11}
10 км 3/3 600 м
[Sc diur, vesp]
+24.4 +7.5 34 +25 +27 комфорт 1013.2 991.2
15 15.08 С 1 10 км 9/1 600 м
[Sc diur, vesp Ci fib]
+21.4 +9.6 47 +23 +23 комфорт 1014.1 991.9 +24.7
18 15.08 СЗ 2 10 км 10/3 600 м
[Sc Cs]
+15.9 +11.0 73 +16 +16 1015.6 993.0
21 15.08 СЗ 1 10 км 10/3 600 м
[Sc Cs]
+15.2 +11.8 80 +16 +16 1015.9 993.2
00 16.08 З 1 4000 м дымка 10/0
[Cs]
+13.4 +11.7 89 +14 +14 1017.0 994.2
03 16.08 СЗ 1 4000 м дымка 9/0
[Ac trans Cc]
+15.8 +13.3 85 +16 +19 1017.5 994.8 +13.1
06 16.08 СЗ 1 10 км 9/1 600 м
[Cu med, cong Ci sp]
+23.4 +13.1 52 +26 +35 жарко 1016.9 994.8
09 16.08 С 2 10 км 9/3 600 м
[Cu med, cong Ci sp]
+25.4 +10.2 38 +26 +33 жарко 1015.7 993.8
12 16.08 С 1 10 км 10/1 600 м
[Cu hum Ac cast Ci sp]
+27.7 +9.9 33 +28 +30 жарко 1015.0 993.3
15 16.08 штиль 0 10 км 3/0
[Ci sp]
+24.6 +11.3 43 +26 +26 жарко 1015.7 993.7 +27.7
18 16.08 ЮЗ 1 10 км 3/0
[Ci fib]
+18.8 +12.5 67 +21 +21 комфорт 1016.6 994.2
21 16.08 СЗ 1 4000 м дымка 5/0
[Ci fib]
+15.2 +12.1 82 +16 +16 1017.5 994.8
00 17.08 штиль 0 4000 м дымка 6/1 600 м
[Sc Ci sp]
+13.4 +11.1 86 +13 +13 1017.9 995.0
03 17.08 З 1 4000 м дымка 10/0
[Cs]
+17.0 +12.2 73 +18 +20 1018.0 995.5 +12.9
06 17.08 СЗ 1 10 км 10/0
[Cs]
+26.2 +11.7 40 +27 +37 жарко 1017.7 995.8
09 17.08 СЗ 2 10 км 10/0
[Ci sp]
+28.6 +10.0 31 +29 +38 жарко 1016.9 995.2
12 17.08 СЗ 1 10 км 8/0
[Cc]
+31.1 +9.0 25 +30 +35 жарко 1016.2 994.7
15 17.08 В 2 10 км 8/0
[Cc]
+27.1 +12.3 40 +29 +29 жарко 1016.8 995.0 +31.1
18 17.08 штиль 0 10 км 9/0
[Ci sp]
+21.8 +13.9 61 +25 +25 комфорт 1017.7 995.5
21 17.08 ЮВ 1 10 км 8/0
[Ci sp]
+19.6 +12.7 64 +22 +22 комфорт 1017.9 995.5
00 18.08 штиль 0 10 км 8/0
[Ac cast Ci sp]
+18.5 +12.3 67 +19 +19 1018.4 995.9
03 18.08 ЮЗ 1 4000 м мгла 10/0
[Ac cast Cs]
+20.2 +13.6 66 +23 +26 комфорт 1018.6 996.3 +16.8
06 18.08 СЗ 1 10 км 10/0
[Cs]
+27.2 +14.3 45 +29 +39 жарко 1018.5 996.7
09 18.08 СЗ 3 10 км 10/1 1000 м
[Cu med, cong Cs]
+31.5 +11.8 30 +32 +39 жарко 1017.8 996.3
12 18.08 СВ 2 10 км 10/1 1000 м
[Sc diur, vesp Cs]
+31.1 +12.3 32 +32 +35 жарко 1018.0 996.4
15 18.08 СВ 2 10 км 8/1 600 м
[Sc diur, vesp Ci sp]
+27.5 +12.5 39 +29 +29 жарко 1019.0 997.2 +31.8
18 18.08 СВ 1 10 км 10/0
[Ac lent Cs]
+22.4 +13.4 57 +25 +25 комфорт 1021.0 998.8
21 18.08 СЗ 1 10 км 10/6 600 м
[Sc Ci fib]
+19.8 +14.4 71 +23 +23 комфорт 1021.9 999.5
00 19.08 С 2 10 км 10/3 600 м
[Sc Ci fib]
+17.5 +13.9 79 +18 +18 1023.3 1000.7
03 19.08 С 3 10 км 8/3 600 м
[Cb cap Ac trans Cc]
+18.9 +15.6 81 +20 +21 1024.6 1002.1 +17.1
06 19.08 В 2 10 км 10/3 600 м
[Sc Ac trans Ci sp]
+24.0 +15.9 61 +27 +31 жарко 1024.4 1002.2

 

Местоположение метеостанции Троицк (Челябинская область, Россия): широта 54.08 долгота 61.62 высота над уровнем моря 192 м.

В архиве по умолчанию представлена погода в Троицке за последнюю неделю. Архивные данные за месяц целиком и за предыдущие месяцы, начиная с января 2011 года, Вы можете получить, выбрав интересующий диапазон дат из раскрывающегося списка и нажав кнопку "Ввод!".


*Определитесь, кто Вы:
робот инопланетянин человек

Внимание! Время в таблицах - всемирное. Для получения местного времени необходимо прибавить поправку, которая равна 5 ч.

Смотрите также архив погоды в соседних городах и на ближайших метеорологических станциях:

Погода в Южноуральске (Челябинская область, Россия) (43 км)
Погода в Карабалыке (Костанайская область, Казахстан) (46 км)
Погода в Михайловке (Костанайская область, Казахстан) (55 км)
Погода в Октябрьском (Челябинская область, Россия) (80 км)
Погода в Мирном (Челябинская область, Россия) (100 км)
Погода в Челябинске (Челябинская область, Россия) (121 км)
Погода в Карталы (Челябинская область, Россия) (131 км)
Погода в Целинном (Курганская область, Россия) (141 км)
Погода в Миассе (Челябинская область, Россия) (143 км)
Погода в Учалах (Башкирия, Россия) (146 км)

Пояснения к столбцам:

Ветер - указаны скорость ветра в м/с - средняя за 10 мин, порывы в срок и между сроками (в фигурных скобках) и направление, откуда дует ветер: С - северный, СВ - северо-восточный, В - восточный, ЮВ - юго-восточный, Ю - южный, ЮЗ - юго-западный, З - западный, СЗ - северо-западный.
Видимость - горизонтальная дальность видимости в метрах или километрах. При видимости от 1 до 10 км при отсутствии осадков обычно наблюдается дымка, при ухудшении видимости до 1 км и менее - туман. В сухую погоду видимость может ухудшаться дымом, пылью или мглою.
Явления - указаны атмосферные явления, наблюдавшиеся в срок или в последний час перед сроком; фигурными скобками обозначены явления, наблюдавшиеся между сроками (за 1-3 часа до срока); квадратными скобками обозначены град или гололедные отложения с указанием их диаметра в мм.
Облачность - указаны через наклонную черту общая и нижняя облачность в баллах и высота нижней границы облаков в метрах; квадратными скобками обозначены формы облаков: Ci - перистые, Cs - перисто-слоистые, Cc - перисто-кучевые, Ac - высококучевые, As - высокослоистые, Sc - слоисто-кучевые, Ns - слоисто-дождевые, Cu - кучевые, Cb - кучево-дождевые. Подробнее классификацию облаков см. в Атласе облаков (PDF).
T - Температура воздуха - температура, измеренная на высоте 2 м над землей.
Td - Температура точки росы - температура, при понижении до которой содержащийся в воздухе водяной пар достигнет насыщения.
f - Относительная влажность воздуха - влажноcть воздуха, измеренная на высоте 2 м над землей.
Te - Эффективная температура - температура, которую ощущает одетый по сезону человек в тени. Характеристика душности погоды. При расчете учитывается влияние влажности воздуха и скорости ветра на теплоощущения человека.
Tes - Эффективная температура на солнце - температура, которую ощущает человек, с поправкой на солнечный нагрев. Характеристика знойности погоды. Зависит от высоты солнца над горизонтом, облачности и скорости ветра. Ночью, в пасмурную погоду, а также при ветре 12 м/с и более поправка равна нулю.
P - Атмосферное давление - приведенное к уровню моря атмосферное давление.
Po - Атмосферное давление - измеренное на уровне метеостанции атмосферное давление.
Tmin - Минимальная температура - минимум температуры воздуха на высоте 2 м над землей.
Tmax - Максимальная температура - максимум температуры воздуха на высоте 2 м над землей.
R - Количество осадков - Количество выпавших осадков за период времени, мм. При наведении курсора мыши на число - период времени, за который выпало указанное количество осадков.
R24 - Количество осадков - Количество выпавших осадков за 24 часа, мм.
S - Снежный покров - Высота снежного покрова, см. При наведении курсора мыши на число - состояние снежного покрова и степень покрытия местности в баллах.